When you browse on this site, cookies collect data to enhance your experience and personalize the content and advertising you see.
Visit our Privacy Policy to learn more. By continuing to use the site, you agree to this use of cookies and data.
  • In Portugal
  • List of Countries
  • For 7 days
  • Water Temperature
  • Weather Map
  • Weather Widgets
  • user-avatar
    Login

    Hourly Weather Samos

    Today, 13 December, Friday

    Time Temperature Precipitation Wind Pressure Humidity
    00:00 +9°C° 0.4 mm 3 mps 713 mmHg 81%
    01:00 +9°C° 0.4 mm 3 mps 713 mmHg 81%
    02:00 +8°C° 0.4 mm 4 mps 713 mmHg 80%
    03:00 +9°C° 0.2 mm 3 mps 713 mmHg 81%
    04:00 +8°C° 0.2 mm 3 mps 712 mmHg 81%
    05:00 +8°C° 0.2 mm 3 mps 712 mmHg 81%
    06:00 +8°C° 0.1 mm 3 mps 713 mmHg 82%
    07:00 +7°C° 0.1 mm 4 mps 713 mmHg 82%
    08:00 +7°C° 0.1 mm 4 mps 713 mmHg 83%
    09:00 +10°C° 0.4 mm 4 mps 713 mmHg 79%
    10:00 +10°C° 0.4 mm 5 mps 713 mmHg 76%
    11:00 +11°C° 0.4 mm 6 mps 713 mmHg 72%
    12:00 +11°C° 1.2 mm 7 mps 712 mmHg 73%
    13:00 +11°C° 1.2 mm 8 mps 712 mmHg 74%
    14:00 +11°C° 1.2 mm 8 mps 712 mmHg 75%
    15:00 +11°C° 1 mm 8 mps 712 mmHg 76%
    16:00 +11°C° 1 mm 7 mps 711 mmHg 77%
    17:00 +10°C° 1 mm 7 mps 711 mmHg 79%
    18:00 +10°C° 0.6 mm 7 mps 712 mmHg 79%
    19:00 +10°C° 0.6 mm 6 mps 712 mmHg 80%
    20:00 +9°C° 0.6 mm 6 mps 712 mmHg 81%
    21:00 +9°C° 0.6 mm 6 mps 712 mmHg 82%
    22:00 +9°C° 0.6 mm 7 mps 712 mmHg 82%
    23:00 +9°C° 0.6 mm 7 mps 712 mmHg 83%

    Tomorrow, 14 December, Saturday

    Time Temperature Precipitation Wind Pressure Humidity
    00:00 +9°C° 0.5 mm 7 mps 712 mmHg 84%
    01:00 +9°C° 0.5 mm 7 mps 712 mmHg 84%
    02:00 +8°C° 0.5 mm 7 mps 712 mmHg 85%
    03:00 +8°C° 0.5 mm 7 mps 712 mmHg 86%
    04:00 +8°C° 0.5 mm 7 mps 711 mmHg 87%
    05:00 +6°C° 0.5 mm 7 mps 711 mmHg 88%
    06:00 +7°C° 0.5 mm 8 mps 711 mmHg 87%
    07:00 +7°C° 0.5 mm 9 mps 711 mmHg 86%
    08:00 +7°C° 0.5 mm 9 mps 710 mmHg 85%
    09:00 +8°C° 0.3 mm 10 mps 710 mmHg 82%
    10:00 +11°C° 0.3 mm 11 mps 710 mmHg 78%
    11:00 +12°C° 0.3 mm 12 mps 709 mmHg 75%
    12:00 +13°C° 0.4 mm 13 mps 709 mmHg 72%
    13:00 +13°C° 0.4 mm 14 mps 708 mmHg 69%
    14:00 +13°C° 0.4 mm 15 mps 707 mmHg 66%
    15:00 +13°C° 1.2 mm 15 mps 707 mmHg 68%
    16:00 +11°C° 1.2 mm 15 mps 707 mmHg 70%
    17:00 +10°C° 1.2 mm 15 mps 707 mmHg 73%
    18:00 +10°C° 1.7 mm 13 mps 708 mmHg 77%
    19:00 +11°C° 1.7 mm 10 mps 708 mmHg 81%
    20:00 +10°C° 1.7 mm 8 mps 709 mmHg 85%
    21:00 +10°C° 3.8 mm 7 mps 709 mmHg 87%
    22:00 +10°C° 3.8 mm 6 mps 710 mmHg 89%
    23:00 +9°C° 3.8 mm 5 mps 711 mmHg 91%

    Day after tomorrow, 15 December, Sunday

    Time Temperature Precipitation Wind Pressure Humidity
    00:00 +9°C° 2.3 mm 5 mps 711 mmHg 90%
    01:00 +9°C° 2.3 mm 5 mps 712 mmHg 89%
    02:00 +9°C° 2.3 mm 5 mps 713 mmHg 88%
    03:00 +9°C° 0.1 mm 5 mps 713 mmHg 86%
    04:00 +9°C° 0.1 mm 5 mps 714 mmHg 85%
    05:00 +8°C° 0.1 mm 5 mps 715 mmHg 84%
    06:00 +8°C° 0 mm 5 mps 716 mmHg 82%
    07:00 +8°C° 0 mm 4 mps 717 mmHg 79%
    08:00 +8°C° 0 mm 4 mps 718 mmHg 77%
    09:00 +10°C° 0 mm 3 mps 718 mmHg 72%
    10:00 +12°C° 0 mm 3 mps 719 mmHg 67%
    11:00 +14°C° 0 mm 2 mps 720 mmHg 61%
    12:00 +14°C° 0 mm 2 mps 720 mmHg 60%
    13:00 +14°C° 0 mm 3 mps 721 mmHg 58%
    14:00 +14°C° 0 mm 3 mps 721 mmHg 57%
    15:00 +13°C° 0 mm 3 mps 722 mmHg 61%
    16:00 +13°C° 0 mm 3 mps 722 mmHg 66%
    17:00 +12°C° 0 mm 4 mps 723 mmHg 70%
    18:00 +12°C° 0 mm 3 mps 723 mmHg 71%
    19:00 +12°C° 0 mm 3 mps 724 mmHg 72%
    20:00 +11°C° 0 mm 3 mps 724 mmHg 73%
    21:00 +11°C° 0 mm 3 mps 724 mmHg 74%
    22:00 +11°C° 0 mm 3 mps 725 mmHg 74%
    23:00 +11°C° 0 mm 3 mps 725 mmHg 75%

    16 December, Monday

    Time Temperature Precipitation Wind Pressure Humidity
    00:00 +10°C° 0 mm 3 mps 725 mmHg 75%
    01:00 +10°C° 0 mm 3 mps 725 mmHg 75%
    02:00 +10°C° 0 mm 3 mps 725 mmHg 75%
    03:00 +9°C° 0 mm 3 mps 725 mmHg 74%
    04:00 +9°C° 0 mm 3 mps 725 mmHg 74%
    05:00 +9°C° 0 mm 3 mps 725 mmHg 74%
    06:00 +9°C° 0 mm 3 mps 726 mmHg 73%
    07:00 +9°C° 0 mm 3 mps 726 mmHg 73%
    08:00 +9°C° 0 mm 3 mps 726 mmHg 73%
    09:00 +10°C° 0 mm 3 mps 726 mmHg 68%
    10:00 +11°C° 0 mm 3 mps 727 mmHg 64%
    11:00 +12°C° 0 mm 3 mps 727 mmHg 59%
    12:00 +13°C° 0 mm 3 mps 727 mmHg 59%
    13:00 +13°C° 0 mm 3 mps 726 mmHg 59%
    14:00 +14°C° 0 mm 3 mps 726 mmHg 58%
    15:00 +13°C° 0 mm 4 mps 726 mmHg 63%
    16:00 +12°C° 0 mm 4 mps 726 mmHg 68%
    17:00 +12°C° 0 mm 4 mps 726 mmHg 72%
    18:00 +11°C° 0 mm 4 mps 726 mmHg 72%
    19:00 +11°C° 0 mm 4 mps 726 mmHg 72%
    20:00 +11°C° 0 mm 4 mps 726 mmHg 72%
    21:00 +10°C° 0 mm 4 mps 726 mmHg 71%
    22:00 +10°C° 0 mm 4 mps 726 mmHg 70%
    23:00 +10°C° 0 mm 4 mps 727 mmHg 69%

    17 December, Tuesday

    Time Temperature Precipitation Wind Pressure Humidity
    00:00 +8°C° 0 mm 4 mps 726 mmHg 68%
    01:00 +9°C° 0 mm 3 mps 726 mmHg 68%
    02:00 +9°C° 0 mm 3 mps 726 mmHg 67%
    03:00 +9°C° 0 mm 3 mps 726 mmHg 67%
    04:00 +8°C° 0 mm 3 mps 726 mmHg 67%
    05:00 +8°C° 0 mm 3 mps 726 mmHg 66%
    06:00 +8°C° 0 mm 3 mps 726 mmHg 66%
    07:00 +8°C° 0 mm 3 mps 726 mmHg 67%
    08:00 +8°C° 0 mm 3 mps 727 mmHg 67%
    09:00 +9°C° 0 mm 3 mps 727 mmHg 62%
    10:00 +11°C° 0 mm 3 mps 727 mmHg 57%
    11:00 +12°C° 0 mm 3 mps 727 mmHg 53%
    12:00 +13°C° 0 mm 3 mps 726 mmHg 52%
    13:00 +14°C° 0 mm 3 mps 726 mmHg 50%
    14:00 +14°C° 0 mm 3 mps 726 mmHg 49%
    15:00 +13°C° 0 mm 3 mps 726 mmHg 55%
    16:00 +12°C° 0 mm 3 mps 726 mmHg 60%
    17:00 +11°C° 0 mm 4 mps 726 mmHg 66%
    18:00 +11°C° 0 mm 4 mps 726 mmHg 67%
    19:00 +11°C° 0 mm 4 mps 726 mmHg 68%
    20:00 +11°C° 0 mm 4 mps 726 mmHg 69%
    21:00 +10°C° 0 mm 4 mps 726 mmHg 66%
    22:00 +10°C° 0 mm 3 mps 726 mmHg 64%
    23:00 +9°C° 0 mm 3 mps 727 mmHg 62%

    18 December, Wednesday

    Time Temperature Precipitation Wind Pressure Humidity
    00:00 +9°C° 0 mm 3 mps 727 mmHg 61%
    01:00 +9°C° 0 mm 3 mps 727 mmHg 60%
    02:00 +9°C° 0 mm 3 mps 726 mmHg 58%
    03:00 +8°C° 0 mm 3 mps 726 mmHg 57%
    04:00 +8°C° 0 mm 3 mps 726 mmHg 57%
    05:00 +8°C° 0 mm 3 mps 726 mmHg 56%
    06:00 +8°C° 0 mm 2 mps 726 mmHg 55%
    07:00 +8°C° 0 mm 2 mps 727 mmHg 54%
    08:00 +8°C° 0 mm 2 mps 727 mmHg 54%
    09:00 +9°C° 0 mm 2 mps 727 mmHg 50%
    10:00 +12°C° 0 mm 2 mps 727 mmHg 46%
    11:00 +13°C° 0 mm 1 mps 728 mmHg 42%
    12:00 +14°C° 0 mm 1 mps 727 mmHg 41%
    13:00 +15°C° 0 mm 1 mps 727 mmHg 41%
    14:00 +15°C° 0 mm 1 mps 727 mmHg 41%
    15:00 +14°C° 0 mm 1 mps 727 mmHg 45%
    16:00 +13°C° 0 mm 1 mps 727 mmHg 49%
    17:00 +12°C° 0 mm 1 mps 727 mmHg 53%
    18:00 +12°C° 0 mm 1 mps 727 mmHg 54%
    19:00 +11°C° 0 mm 1 mps 727 mmHg 55%
    20:00 +11°C° 0 mm 1 mps 728 mmHg 56%
    21:00 +11°C° 0 mm 1 mps 728 mmHg 57%
    22:00 +11°C° 0 mm 1 mps 728 mmHg 58%
    23:00 +10°C° 0 mm 1 mps 728 mmHg 59%
    Show more